Weather in Naperville

United States     41°46′40″N   88°09′13″W
temp.,
°C
wind,
m/s
gust,
m/s
humid.,
%
clouds,
%
prec.,
mm/h
press.,
hPa
HPBL,
m
16 september, thu
thu1601:00+15ese22690 0.0 101818
04:00+14se22680 0.0 101818
07:00+13sse33670 0.0 102030
10:00+21sse46570 0.0 1019372
13:00+25sse44440 0.0 10181263
16:00+26sse45430 0.0 10161357
19:00+20s33650 0.0 101722
22:00+17sse33720 0.0 101823
17 september, fri
fri1701:00+15s34810 0.0 101756
04:00+15s33910 0.0 101742
07:00+15ssw23950 0.0 101844
10:00+23sw46670 0.0 1019471
13:00+28sw45420 0.0 10181457
16:00+29ssw45410 0.0 10161733
19:00+24s455770 0.0 101658
22:00+22w2362100 0.0 101846
18 september, sat
sat1801:00+20nne4873100 0.0 1019146
04:00+19nne3593100 0.0 101999
07:00+19nne369425 0.0 1020127
10:00+24ne33690 0.0 1021664
13:00+28ese115513 0.0 10201257
16:00+29w115386 0.0 10181517
19:00+24e586297 0.1 1018288
22:00+22ese376988 0.0 1019191
19 september, sun
sun1901:00+19se22840 0.0 102015
04:00+18sse22860 0.0 102015
07:00+18sse22850 0.0 102011
10:00+25s33630 0.0 1020378
13:00+29sse56500 0.0 10181340
16:00+30s57460 0.0 10161911
19:00+24ssw336590 0.0 101637
22:00+22sse397199 0.0 1016161
20 september, mon
mon2001:00+22sse4108290 0.2 1016279
04:00+20sse499599 0.4 1015203
07:00+20sse3997100 0.4 1015240
10:00+22sse51089100 0.1 1015563
13:00+26s797383 0.9 10131148
16:00+26s797420 3.1 10121035
19:00+23s6138756 6.0 1011494
22:00+21s615949 0.4 1012587